This is the latest recevied weather packets stored in our database for station/object K4AVM-13. If no packets are shown the sender has not sent any weather packets the latest 10 day(s).
| Time | Temp. | Humidity | Pressure | Rain* | Wind** | Luminosity | Snow |
|---|---|---|---|---|---|---|---|
| 1778093834 | 18.89° C | 89% | 1011.8 hPa | 0 mm | - | 137 W/m² | - |
| 1778093530 | 18.89° C | 90% | 1011.8 hPa | 0 mm | - | 134 W/m² | - |
| 1778093228 | 18.89° C | 90% | 1012.1 hPa | 0 mm | - | 127 W/m² | - |
| 1778092925 | 18.89° C | 89% | 1011.8 hPa | 0 mm | - | 117 W/m² | - |
| 1778092622 | 18.89° C | 88% | 1011.7 hPa | 0 mm | - | 105 W/m² | - |
| 1778092317 | 18.89° C | 87% | 1012 hPa | 0 mm | - | 100 W/m² | - |
| 1778092015 | 19.44° C | 87% | 1012.2 hPa | 0 mm | - | 107 W/m² | - |
| 1778091711 | 19.44° C | 87% | 1012.3 hPa | 0 mm | - | 112 W/m² | - |
| 1778091404 | 19.44° C | 87% | 1012.5 hPa | 0 mm | - | 129 W/m² | - |
| 1778091101 | 19.44° C | 86% | 1012.4 hPa | 0 mm | - | 154 W/m² | - |
| 1778090798 | 19.44° C | 86% | 1012.5 hPa | 0 mm | - | 170 W/m² | - |
| 1778090494 | 19.44° C | 86% | 1012.6 hPa | 0 mm | - | 174 W/m² | - |
| 1778090191 | 19.44° C | 86% | 1012.6 hPa | 0 mm | - | 176 W/m² | - |
| 1778089887 | 19.44° C | 86% | 1012.5 hPa | 0 mm | - | 172 W/m² | - |
| 1778089586 | 19.44° C | 86% | 1012.5 hPa | 0 mm | - | 186 W/m² | - |
| 1778089282 | 19.44° C | 85% | 1012.4 hPa | 0 mm | - | 166 W/m² | - |
| 1778088980 | 19.44° C | 85% | 1012.5 hPa | 0 mm | - | 213 W/m² | - |
| 1778088676 | 19.44° C | 86% | 1012.6 hPa | 0 mm | - | 196 W/m² | - |
| 1778088374 | 18.89° C | 86% | 1012.7 hPa | 0 mm | - | 142 W/m² | - |
| 1778088070 | 18.89° C | 86% | 1012.4 hPa | 0 mm | - | 105 W/m² | - |
| 1778087768 | 18.89° C | 86% | 1012.4 hPa | 0 mm | - | 143 W/m² | - |
| 1778087465 | 18.89° C | 86% | 1012.9 hPa | 0 mm | - | 172 W/m² | - |
| 1778087161 | 18.89° C | 88% | 1012.9 hPa | 0 mm | - | 197 W/m² | - |
| 1778086854 | 18.89° C | 88% | 1013.1 hPa | 0 mm | - | 129 W/m² | - |
| 1778086552 | 18.89° C | 88% | 1013 hPa | 0 mm | - | 164 W/m² | - |
* Rain latest hour (hover to see other rain measurements)
** Current wind speed in m/s (hover to see current wind gust speed)